7 * 24
多渠道服务支持
RADUGA 16 是俄罗斯的一颗军用通信卫星,属于“彩虹”(Raduga)系列,主要用于支持军事通信和战略指挥系统。该卫星由俄罗斯国家航天公司(Roscosmos)运营,搭载于高轨道,具备抗干扰和加密通信能力,以确保在战时的通信稳定性。其发射增强了俄罗斯在太空领域的战略能力,并提升了其军事指挥与控制系统的可靠性。RADUGA 16 的部署反映了俄罗斯在发展自主军事通信系统方面的持续努力。
数据来源 | 国际轨道数据 |
星历时间: | 2025-10-14T01:50:29+0800 20小时前 查看轨道信息 |
半长轴: | 42185.598km |
偏心率: | 0.0003152 |
轨道倾角: | 9.847° |
近地点辐角 | 272.921° |
升交点赤经 | 318.377° |
平近点角 | 270.093° |
近地点: | 35794.166km |
远地点: | 35820.76km |
周期: | 1437.163分钟 |
每日圈数: | 1.001974 |